Location: Bosdarros
(43.2167°N, 0.3667°W)
Time: 02:12:39
(UTC+00:00)

Cosmos 1633 - Pass Details

Date: 22 April 2021
Orbit: 460 x 478 km, 82.5° (Epoch: 15 May)

Event Time Altitude Azimuth Distance (km) Brightness Sun altitude
Rises 20:36:18 0° 350° (N) 2,532 7.0 -17.5°
Reaches altitude 10° 20:38:25 10° 349° (N) 1,646 5.9 -17.8°
Maximum altitude 20:42:00 78° 263° (W) 486 2.5 -18.3°
Enters shadow 20:43:13 39° 184° (S) 721 3.1 -18.5°
